Miscellaneous Local Product
Issued by NWS Hastings, NE

Home | Current Version | Previous Version | Graphics & Text | Print | Product List | Glossary Off
Versions: 1 2 3 4 5 6 7 8 9 10 11 12 13 14 15 16 17 18 19 20 21 22 23 24 25 26 27 28 29 30 31 32 33 34 35 36 37 38 39 40 41 42 43 44 45 46 47 48 49 50

000
AXUS43 KGID 210802
MISGRI

GID CWA HOURLY WEATHER ROUNDUP
NATIONAL WEATHER SERVICE HASTINGS NE
300 AM CDT TUE OCT 21 2014

NOTE: "FAIR" INDICATES FEW OR NO CLOUDS BELOW 12,000 FEET WITH NO
SIGNIFICANT WEATHER AND/OR OBSTRUCTIONS TO VISIBILITY.

...SOUTH CENTRAL NEBRASKA...

CITY           SKY/WX    TMP DP  RH WIND       PRES   REMARKS
GRAND ISLAND   CLEAR     49  40  71 S8        30.08R
HASTINGS       CLEAR     51  39  63 S6        30.08R
KEARNEY        CLEAR     43  37  81 SE3       30.09R
ORD            CLEAR     40  36  86 CALM      30.05S
YORK           CLEAR     48  37  66 S5        30.08S
AURORA         CLEAR     51  37  59 S7        30.08R
LEXINGTON      CLEAR     53  42  66 SW3       30.06S
HOLDREGE       CLEAR     48  39  72 CALM      30.07S
HEBRON         CLEAR     41  37  84 CALM      30.09R

...NEBRASKA PANHANDLE...

CITY           SKY/WX    TMP DP  RH WIND       PRES   REMARKS
CHADRON        CLEAR     63  42  46 S17       29.91F
ALLIANCE       CLEAR     48  40  73 S10       30.00S
SCOTTSBLUFF    CLEAR     57  41  55 SE7       29.99S
SIDNEY         CLEAR     51  41  68 S12       30.05S

...WESTERN AND NORTH CENTRAL NEBRASKA...

CITY           SKY/WX    TMP DP  RH WIND       PRES   REMARKS
VALENTINE      CLEAR     53  39  59 S7        29.97S
AINSWORTH      CLEAR     53  40  60 S10       29.99S
ONEILL         CLEAR     49  41  74 SE7       30.04S
BROKEN BOW     CLEAR     46  39  76 CALM      30.05S
IMPERIAL       CLEAR     51  38  60 S7        30.06F
NORTH PLATTE   CLEAR     45  37  73 NE3       30.05S
MCCOOK         CLEAR     50  40  68 SW7       30.07S

...EASTERN NEBRASKA...

CITY           SKY/WX    TMP DP  RH WIND       PRES   REMARKS
NORFOLK        CLEAR     43  35  73 CALM      30.07R
SO SIOUX CITY  CLEAR     38  36  92 CALM      30.08R
TEKAMAH        CLEAR     39  35  86 CALM      30.08S
COLUMBUS       CLEAR     41  34  75 CALM      30.09R
ALBION         CLEAR     40  35  82 CALM      30.07R
OMAHA EPPLEY   CLEAR     45  41  86 CALM      30.09R
OFFUTT AFB     CLEAR     38  38 100 CALM      30.08R
MILLARD        CLEAR     43  42  96 CALM      30.09R FOG
LINCOLN        CLEAR     39  35  86 CALM      30.10R
NEBRASKA CITY  CLEAR     50  33  52 SW3       30.09R
BEATRICE       CLEAR     39  37  91 CALM      30.09S FOG
FALLS CITY     CLEAR     40  38  93 NW3       30.09R

...NORTHERN KANSAS...

CITY           SKY/WX    TMP DP  RH WIND       PRES   REMARKS
GOODLAND       CLEAR     52  40  63 S10       30.10F
HILL CITY      CLEAR     50  42  74 CALM      30.08F
NORTON         SUNNY     45  37  76 SW7       30.07R
PHILLIPSBURG   CLEAR     45  39  81 CALM      30.08S
BELOIT         CLEAR     45  43  93 CALM      30.07S
HAYS           CLEAR     46  37  71 CALM      30.09S
RUSSELL        CLEAR     49  44  83 S8        30.07S
CONCORDIA      CLEAR     47  44  90 CALM      30.09R
SALINA         CLEAR     48  44  86 CALM      30.09R
TOPEKA         PTCLDY    44  43  96 CALM      30.10R



USA.gov is the U.S. government's official web portal to all federal, state and local government web resources and services.